Location: Newark
(30.8531°N, 60.5961°E)
Time: 04:41:26
(UTC+00:00)

Envisat - Visible Passes

Search period start: 22 July 2019 00:00
Search period end: 01 August 2019 00:00
Orbit: 764 x 766 km, 98.1° (Epoch: 21 July)

Date Brightness Start Highest point End Pass type
(mag) Time Alt. Az. Time Alt. Az. Time Alt. Az.
23 Jul 6.2 15:54:19 10° W 15:54:57 10° W 15:55:34 10° W visible
26 Jul 5.8 15:41:00 10° SW 15:43:36 14° W 15:46:12 10° WNW visible
29 Jul 5.7 15:28:48 10° SW 15:32:17 19° W 15:35:46 10° NW visible
